Location: Unspecified
(0.0000°N, 0.0000°E)
Time: 08:44:40
(UTC+00:00)

Explorer 11/Cluster Stage 4 - Pass Details

Date: 23 July 2020
Orbit: 467 x 1259 km, 28.8° (Epoch: 03 August)

Event Time Altitude Azimuth Distance (km) Brightness Sun altitude
Rises 01:56:04 0° 233° (SW) 3,560 - -56.6°
Reaches altitude 10° 01:59:01 10° 229° (SW) 2,475 - -56.0°
Maximum altitude 02:04:43 57° 151° (SSE) 840 - -54.8°
Drops below altitude 10° 02:09:13 10° 72° (ENE) 1,970 - -53.9°
Sets 02:11:20 0° 68° (ENE) 2,776 - -53.5°
